TimeCDT,TemperatureF,Dew PointF,Humidity,Sea Level PressureIn,VisibilityMPH,Wind Direction,Wind SpeedMPH,Gust SpeedMPH,PrecipitationIn,Events,Conditions,WindDirDegrees,DateUTC
12:53 AM,55.9,24.1,29,29.88,10.0,SSW,16.1,24.2,N/A,,Clear,210,2014-03-21 05:53:00
1:53 AM,54.0,25.0,33,29.88,10.0,SSW,13.8,-,N/A,,Clear,210,2014-03-21 06:53:00
2:53 AM,52.0,26.1,37,29.87,10.0,SW,10.4,-,N/A,,Clear,220,2014-03-21 07:53:00
3:53 AM,50.0,27.0,41,29.86,10.0,SSW,12.7,-,N/A,,Clear,210,2014-03-21 08:53:00
4:53 AM,50.0,28.0,43,29.86,10.0,SW,11.5,-,N/A,,Clear,220,2014-03-21 09:53:00
5:53 AM,50.0,28.0,43,29.85,10.0,SSW,11.5,-,N/A,,Clear,210,2014-03-21 10:53:00
6:53 AM,52.0,28.0,40,29.84,10.0,SSW,11.5,-,N/A,,Clear,200,2014-03-21 11:53:00
7:53 AM,50.0,28.9,44,29.84,10.0,South,11.5,-,N/A,,Clear,190,2014-03-21 12:53:00
8:53 AM,53.1,28.9,40,29.85,10.0,SSW,13.8,-,N/A,,Clear,200,2014-03-21 13:53:00
9:53 AM,57.9,28.9,33,29.84,10.0,SSW,16.1,-,N/A,,Clear,200,2014-03-21 14:53:00
10:53 AM,62.1,30.0,30,29.81,10.0,South,17.3,27.6,N/A,,Clear,180,2014-03-21 15:53:00
11:53 AM,66.9,30.0,25,29.80,10.0,SSW,19.6,-,N/A,,Clear,210,2014-03-21 16:53:00
12:53 PM,72.0,33.1,24,29.79,10.0,SSW,18.4,27.6,N/A,,Clear,210,2014-03-21 17:53:00
1:53 PM,70.0,36.0,29,29.78,10.0,West,19.6,28.8,N/A,,Clear,270,2014-03-21 18:53:00
2:53 PM,69.1,36.0,30,29.79,10.0,West,15.0,25.3,N/A,,Clear,280,2014-03-21 19:53:00
3:53 PM,66.9,36.0,32,29.81,10.0,West,17.3,23.0,N/A,,Clear,280,2014-03-21 20:53:00
4:53 PM,68.0,34.0,28,29.82,10.0,NW,15.0,-,N/A,,Clear,310,2014-03-21 21:53:00
5:53 PM,62.1,32.0,32,29.87,10.0,NW,21.9,-,N/A,,Clear,320,2014-03-21 22:53:00
6:53 PM,59.0,34.0,39,29.90,10.0,NW,10.4,-,N/A,,Clear,320,2014-03-21 23:53:00
7:53 PM,55.9,34.0,44,29.93,10.0,WNW,8.1,-,N/A,,Clear,300,2014-03-22 00:53:00
8:53 PM,57.0,30.0,36,29.97,10.0,NNW,15.0,-,N/A,,Clear,330,2014-03-22 01:53:00
9:53 PM,54.0,28.9,38,30.01,10.0,NNW,16.1,-,N/A,,Clear,330,2014-03-22 02:53:00
10:53 PM,51.1,30.9,46,30.06,10.0,North,19.6,26.5,N/A,,Clear,350,2014-03-22 03:53:00
11:53 PM,48.9,30.0,48,30.08,10.0,NNW,13.8,-,N/A,,Clear,340,2014-03-22 04:53:00